WXM80 ListenWXM80 Stop

You find our weather info also at:

UK Metoffice

WeatherCloud

Weather Underground

Northeastern Weather Network

AWEKAS

Citizen Weather Observer Program (CWOP)

HAMweather, WeatherForYou, PWS Weather


Weather Underground History page Text

Daily Summary for May 26, 2017 Units:  Metric    English   Both
« Previous Day
Next Day »
Daily Weekly Monthly Yearly Custom
  High: Low: Average:
Temperature: 25.6 °C 11.8 °C 17.8 °C
Dew Point: 18.6 °C 11.5 °C 14.3 °C
Humidity: 99 % 54 % 82 %
Wind Speed: 13.5 km/h 0 km/h 4.5 km/h
Wind Gust: 22.2 km/h - -
Wind:- - SW
Pressure: 1007 hPa 996.2 hPa -
Precipitation: 12.7 mm    
Historical Graphs
 
 
Tabular Data for May 26, 2017
Time Temperature Dew Point Pressure Wind Wind Speed Wind Gust Humidity Rainfall Rate (Hourly)
00:00 13.2 °C 12.9 °C 997.9 hPa ENE 4 km/h 6.4 km/h 98 % 4.83 mm
00:05 13.2 °C 12.8 °C 997.5 hPa ENE 5.3 km/h 5.6 km/h 98 % 6.35 mm
00:10 13.2 °C 12.8 °C 997.2 hPa East 6.9 km/h 11.1 km/h 98 % 6.86 mm
00:15 13.2 °C 12.8 °C 996.5 hPa ENE 8.2 km/h 11.3 km/h 98 % 7.37 mm
00:20 13.1 °C 12.8 °C 996.5 hPa East 11.4 km/h 17.7 km/h 98 % 7.37 mm
00:26 13.1 °C 12.7 °C 996.2 hPa ENE 8 km/h 16.1 km/h 98 % 0 mm
00:31 13.1 °C 12.7 °C 996.2 hPa East 6.3 km/h 14.8 km/h 98 % 7.62 mm
00:36 13.1 °C 12.7 °C 996.2 hPa ENE 4.8 km/h 16.1 km/h 98 % 0 mm
00:41 13 °C 12.7 °C 996.2 hPa ENE 4.8 km/h 11.3 km/h 98 % 0 mm
00:46 13 °C 12.7 °C 996.2 hPa ENE 4.8 km/h 11.3 km/h 98 % 0 mm
00:51 13.1 °C 12.7 °C 996.5 hPa ENE 3.2 km/h 8 km/h 98 % 0 mm
00:56 13.1 °C 12.8 °C 996.5 hPa East 3.2 km/h 4.8 km/h 98 % 0 mm
01:01 13.1 °C 12.8 °C 996.5 hPa East 5.3 km/h 5.6 km/h 98 % 3.05 mm
01:06 13.1 °C 12.8 °C 996.5 hPa East 3.2 km/h 8 km/h 98 % 0 mm
01:08 13.1 °C 12.8 °C 996.5 hPa ENE 2.3 km/h 5.6 km/h 98 % 1.02 mm
01:13 13.1 °C 12.7 °C 996.5 hPa ENE 3.9 km/h 5.6 km/h 98 % 0.51 mm
01:18 13.1 °C 12.7 °C 996.5 hPa ENE 4.7 km/h 5.6 km/h 98 % 0.51 mm
01:23 13.1 °C 12.7 °C 996.2 hPa ENE 3.1 km/h 5.6 km/h 98 % 0.25 mm
01:28 13.1 °C 12.7 °C 996.5 hPa NE 3.2 km/h 5.6 km/h 98 % 0.25 mm
01:33 13 °C 12.8 °C 996.5 hPa ENE 2.7 km/h 4.8 km/h 99 % 0.51 mm
01:38 13 °C 12.7 °C 996.5 hPa NE 0.5 km/h 1.9 km/h 98 % 0.51 mm
01:43 13 °C 12.7 °C 996.5 hPa NE 1.1 km/h 3.7 km/h 98 % 0.51 mm
01:48 13 °C 12.7 °C 996.5 hPa NE 0.3 km/h 3.2 km/h 98 % 0.51 mm
01:53 13 °C 12.7 °C 996.5 hPa NE 0.3 km/h 1.9 km/h 98 % 0.76 mm
01:58 13 °C 12.7 °C 996.5 hPa ESE 1.9 km/h 3.7 km/h 98 % 0.76 mm
02:03 13 °C 12.7 °C 996.8 hPa Calm   1.9 km/h 98 % 0.76 mm
02:08 12.9 °C 12.6 °C 996.8 hPa ESE 0.2 km/h 1.9 km/h 98 % 1.27 mm
02:18 12.9 °C 12.6 °C 996.5 hPa NE 1.3 km/h 5.6 km/h 98 % 2.54 mm
02:23 12.9 °C 12.6 °C 996.5 hPa Calm   5.6 km/h 98 % 3.56 mm
02:28 12.9 °C 12.6 °C 996.5 hPa NE 1.4 km/h 3.7 km/h 98 % 4.57 mm
02:33 12.8 °C 12.5 °C 996.5 hPa ENE 1.4 km/h 5.6 km/h 98 % 5.08 mm
02:38 12.8 °C 12.5 °C 996.2 hPa NE 6.1 km/h 11.1 km/h 98 % 5.84 mm
02:43 12.8 °C 12.4 °C 996.2 hPa ENE 5.8 km/h 11.1 km/h 98 % 6.35 mm
02:48 12.8 °C 12.4 °C 996.2 hPa ENE 6.4 km/h 9.3 km/h 98 % 6.86 mm
02:53 12.8 °C 12.4 °C 996.2 hPa ENE 8.2 km/h 12.9 km/h 98 % 6.86 mm
02:58 12.8 °C 12.4 °C 996.2 hPa ENE 5.6 km/h 16.7 km/h 98 % 7.11 mm
03:03 12.7 °C 12.4 °C 996.2 hPa ENE 9.3 km/h 16.7 km/h 98 % 7.11 mm
03:08 12.7 °C 12.3 °C 996.2 hPa NE 7.4 km/h 13 km/h 98 % 6.6 mm
03:14 12.6 °C 12.3 °C 996.2 hPa ENE 6.1 km/h 11.1 km/h 98 % 5.84 mm
03:19 12.6 °C 12.3 °C 996.5 hPa ENE 7.9 km/h 16.7 km/h 98 % 4.83 mm
03:24 12.5 °C 12.2 °C 996.2 hPa ENE 7.2 km/h 14.8 km/h 98 % 3.81 mm
03:34 12.4 °C 12.1 °C 996.5 hPa ENE 7.9 km/h 13 km/h 98 % 2.03 mm
03:39 12.4 °C 12.1 °C 996.5 hPa ENE 7.1 km/h 11.1 km/h 98 % 1.52 mm
03:44 12.3 °C 12 °C 996.5 hPa ENE 4.5 km/h 5.6 km/h 98 % 0.76 mm
03:49 12.3 °C 11.9 °C 996.5 hPa East 7.1 km/h 13 km/h 98 % 0.51 mm
03:54 12.2 °C 11.9 °C 996.8 hPa ENE 3.9 km/h 13 km/h 98 % 0.25 mm
03:59 12.2 °C 11.8 °C 996.8 hPa NE 6.1 km/h 7.4 km/h 98 % 0.25 mm
04:04 12.1 °C 11.7 °C 996.8 hPa ENE 3.5 km/h 5.6 km/h 98 % 0.25 mm
04:09 12.1 °C 11.7 °C 997.2 hPa ENE 3.4 km/h 5.6 km/h 98 % 0.25 mm
04:14 12 °C 11.7 °C 997.2 hPa NE 3.1 km/h 7.4 km/h 98 % 0.25 mm
04:19 12 °C 11.7 °C 997.2 hPa NE 4 km/h 5.6 km/h 98 % 0.25 mm
04:24 11.9 °C 11.6 °C 997.2 hPa NNW 7.2 km/h 9.7 km/h 98 % 0.25 mm
04:29 11.9 °C 11.6 °C 997.5 hPa NNW 3.4 km/h 6.4 km/h 98 % 0.25 mm
04:34 11.9 °C 11.6 °C 997.5 hPa NNE 4.5 km/h 9.3 km/h 98 % 0.25 mm
04:39 11.8 °C 11.6 °C 997.5 hPa NNE 3.9 km/h 5.6 km/h 98 % 0.25 mm
04:44 11.8 °C 11.6 °C 997.5 hPa North 5.1 km/h 5.6 km/h 98 % 0.51 mm
04:49 11.8 °C 11.6 °C 997.5 hPa NNE 2.9 km/h 5.6 km/h 98 % 0.25 mm
04:54 11.8 °C 11.6 °C 997.5 hPa NNE 0.3 km/h 1.9 km/h 98 % 0.25 mm
04:59 11.8 °C 11.5 °C 997.5 hPa NNE 1.1 km/h 3.7 km/h 98 % 0.25 mm
05:04 11.8 °C 11.5 °C 997.5 hPa ENE 1 km/h 5.6 km/h 98 % 0.25 mm
05:09 11.8 °C 11.5 °C 997.5 hPa North 0.6 km/h 5.6 km/h 98 % 0.51 mm
05:14 11.8 °C 11.5 °C 997.9 hPa NNE 2.6 km/h 5.6 km/h 98 % 0.51 mm
05:19 11.8 °C 11.5 °C 997.9 hPa NNE 0.6 km/h 5.6 km/h 98 % 0.51 mm
05:24 11.8 °C 11.5 °C 997.9 hPa Calm   3.7 km/h 98 % 0.51 mm
05:30 11.8 °C 11.5 °C 998.2 hPa North 3.9 km/h 5.6 km/h 98 % 0.51 mm
05:35 11.8 °C 11.5 °C 998.2 hPa Calm     98 % 0.76 mm
05:40 11.8 °C 11.5 °C 998.2 hPa NW 3.1 km/h 5.6 km/h 98 % 0.76 mm
05:45 11.8 °C 11.5 °C 998.5 hPa Calm   3.7 km/h 98 % 0.76 mm
05:50 11.8 °C 11.5 °C 998.5 hPa West 2.1 km/h 7.4 km/h 98 % 1.02 mm
05:55 11.8 °C 11.6 °C 998.5 hPa NW 3.5 km/h 11.1 km/h 98 % 1.02 mm
06:00 11.8 °C 11.6 °C 998.5 hPa North 2.4 km/h 8 km/h 98 % 1.27 mm
06:05 11.8 °C 11.6 °C 998.9 hPa NW 1.1 km/h 1.6 km/h 98 % 1.27 mm
06:10 11.8 °C 11.6 °C 998.9 hPa WNW 4.8 km/h 5.6 km/h 98 % 1.02 mm
06:15 11.9 °C 11.6 °C 998.9 hPa WNW 3.9 km/h 5.6 km/h 98 % 1.02 mm
06:20 11.9 °C 11.6 °C 998.9 hPa NNW 2.6 km/h 9.7 km/h 98 % 1.02 mm
06:25 11.9 °C 11.6 °C 998.9 hPa NNW 1.6 km/h 9.7 km/h 98 % 0 mm
06:30 11.9 °C 11.6 °C 999.2 hPa Calm   3.2 km/h 98 % 0 mm
06:35 11.9 °C 11.6 °C 999.2 hPa NNW 1.6 km/h 4.8 km/h 98 % 0 mm
06:40 11.9 °C 11.6 °C 999.2 hPa Calm   6.4 km/h 98 % 0 mm
06:45 11.9 °C 11.6 °C 999.2 hPa WNW 0.2 km/h 1.9 km/h 98 % 0.51 mm
06:50 11.9 °C 11.6 °C 999.5 hPa WNW 2.4 km/h 2.4 km/h 98 % 0.25 mm
06:53 12 °C 11.7 °C 999.2 hPa NE 1.9 km/h 7.4 km/h 98 % 0.25 mm
07:03 12 °C 11.8 °C 999.2 hPa NNW 2.1 km/h 6.4 km/h 99 % 0 mm
07:08 12.1 °C 11.9 °C 999.2 hPa NNE 1.4 km/h 5.6 km/h 99 % 0 mm
07:13 12.1 °C 11.9 °C 999.2 hPa North 0.5 km/h 5.6 km/h 99 % 0 mm
07:18 12.1 °C 11.9 °C 999.5 hPa NW 1.3 km/h 5.6 km/h 99 % 0 mm
07:23 12.1 °C 11.9 °C 999.5 hPa NW 0.6 km/h 3.7 km/h 99 % 0 mm
07:28 12.2 °C 12 °C 999.5 hPa Calm   1.9 km/h 99 % 0 mm
07:33 12.2 °C 12.1 °C 999.5 hPa NW 0.2 km/h 5.6 km/h 99 % 0 mm
07:38 12.3 °C 11.9 °C 999.5 hPa WNW 1.4 km/h 9.3 km/h 98 % 0 mm
07:43 12.3 °C 12 °C 999.9 hPa Calm   3.7 km/h 98 % 0 mm
07:48 12.4 °C 12.2 °C 999.9 hPa WNW 5 km/h 7.4 km/h 99 % 0 mm
07:53 12.5 °C 12.3 °C 999.9 hPa WNW 0.6 km/h 3.7 km/h 99 % 0 mm
07:58 12.6 °C 12.4 °C 999.9 hPa West 2.4 km/h 5.6 km/h 99 % 0 mm
08:03 12.7 °C 12.3 °C 999.9 hPa WNW 1.4 km/h 5.6 km/h 98 % 0 mm
08:08 12.8 °C 12.6 °C 999.9 hPa WNW 0.6 km/h 3.7 km/h 99 % 0 mm
08:13 12.9 °C 12.7 °C 1000.2 hPa WNW 0.3 km/h 3.2 km/h 99 % 0 mm
08:18 13 °C 12.8 °C 1000.2 hPa SW 1.1 km/h 3.7 km/h 99 % 0 mm
08:23 13.1 °C 12.9 °C 1000.2 hPa WNW 0.2 km/h 5.6 km/h 99 % 0 mm
08:28 13.2 °C 13.1 °C 1000.2 hPa NW 3.2 km/h 6.4 km/h 99 % 0 mm
08:34 13.3 °C 13.1 °C 1000.2 hPa West 0.3 km/h 5.6 km/h 99 % 0 mm
08:39 13.4 °C 13.2 °C 1000.2 hPa WNW 1.8 km/h 9.3 km/h 99 % 0 mm
08:44 13.4 °C 13.3 °C 1000.2 hPa NW 4.2 km/h 5.6 km/h 99 % 0 mm
08:49 13.6 °C 13.4 °C 1000.2 hPa WNW 0.2 km/h 1.9 km/h 99 % 0 mm
08:54 13.7 °C 13.6 °C 1000.2 hPa WSW 2.1 km/h 8 km/h 99 % 0 mm
08:59 13.8 °C 13.7 °C 1000.2 hPa NW 4.5 km/h 9.3 km/h 99 % 0 mm
09:04 13.9 °C 13.7 °C 1000.2 hPa WNW 2.6 km/h 5.6 km/h 99 % 0 mm
09:09 14.1 °C 13.9 °C 1000.6 hPa WNW 3.4 km/h 11.1 km/h 99 % 0 mm
09:14 14.3 °C 14.1 °C 1000.2 hPa WSW 6.6 km/h 9.7 km/h 99 % 0 mm
09:19 14.3 °C 14.2 °C 1000.2 hPa WSW 3.9 km/h 9.3 km/h 99 % 0 mm
09:24 14.4 °C 14.3 °C 1000.2 hPa Calm   1.6 km/h 99 % 0 mm
09:29 14.7 °C 14.5 °C 1000.2 hPa NW 4.5 km/h 12.9 km/h 99 % 0 mm
09:34 14.8 °C 14.7 °C 1000.2 hPa West 2.4 km/h 5.6 km/h 99 % 0 mm
09:39 14.9 °C 14.8 °C 1000.2 hPa West 8.4 km/h 13 km/h 99 % 0 mm
09:44 14.9 °C 14.8 °C 1000.2 hPa West 0.5 km/h 3.2 km/h 99 % 0 mm
09:49 15 °C 14.8 °C 1000.2 hPa West 3.7 km/h 7.4 km/h 99 % 0 mm
09:54 15 °C 14.7 °C 1000.2 hPa West 3.1 km/h 7.4 km/h 98 % 0 mm
09:59 15.1 °C 14.7 °C 1000.2 hPa WNW 3.5 km/h 5.6 km/h 98 % 0 mm
10:04 15.2 °C 14.9 °C 1000.2 hPa WSW 9.3 km/h 11.3 km/h 98 % 0 mm
10:09 15.3 °C 15 °C 1000.2 hPa WSW 5.8 km/h 11.1 km/h 98 % 0 mm
10:14 15.4 °C 15.1 °C 1000.2 hPa WSW 4.7 km/h 9.3 km/h 98 % 0 mm
10:19 15.5 °C 15.2 °C 1000.2 hPa SW 5.3 km/h 9.3 km/h 98 % 0 mm
10:24 15.6 °C 15.3 °C 1000.2 hPa WSW 8.9 km/h 9.7 km/h 98 % 0 mm
10:29 15.8 °C 15.4 °C 1000.2 hPa SSW 5.6 km/h 11.3 km/h 98 % 0 mm
10:34 16.2 °C 15.7 °C 1000.2 hPa WSW 7.1 km/h 13 km/h 97 % 0 mm
10:40 16.4 °C 15.9 °C 1000.2 hPa WSW 8.5 km/h 18.5 km/h 97 % 0 mm
10:45 16.6 °C 15.8 °C 1000.2 hPa SSW 6.6 km/h 18.5 km/h 95 % 0 mm
10:50 16.9 °C 16.1 °C 1000.2 hPa WSW 7.6 km/h 13 km/h 95 % 0 mm
10:55 17.4 °C 16.4 °C 1000.2 hPa WNW 2.3 km/h 5.6 km/h 94 % 0 mm
11:00 17.7 °C 16.4 °C 1000.2 hPa WSW 9.7 km/h 14.8 km/h 92 % 0 mm
11:05 17.9 °C 16.3 °C 1000.6 hPa SSW 6.1 km/h 9.3 km/h 90 % 0 mm
11:10 18.2 °C 16.5 °C 1000.2 hPa NW 6.3 km/h 9.7 km/h 90 % 0 mm
11:15 18.4 °C 16.9 °C 1000.2 hPa WNW 1.6 km/h 7.4 km/h 91 % 0 mm
11:20 19.1 °C 17.6 °C 1000.2 hPa WNW 4.8 km/h 8 km/h 91 % 0 mm
11:25 19.4 °C 17.2 °C 1000.2 hPa SW 8.4 km/h 13 km/h 87 % 0 mm
11:30 19.7 °C 17.3 °C 1000.2 hPa West 1.6 km/h 9.3 km/h 86 % 0 mm
11:35 20.1 °C 17.7 °C 1000.2 hPa NW 3.7 km/h 7.4 km/h 86 % 0 mm
11:36 20.1 °C 17.7 °C 1000.2 hPa NW 3.7 km/h 7.4 km/h 86 % 0 mm
11:41 20.5 °C 18.1 °C 1000.6 hPa WSW 7.2 km/h 16.1 km/h 86 % 0 mm
11:46 20.8 °C 17.8 °C 1000.6 hPa WSW 8.7 km/h 14.8 km/h 83 % 0 mm
11:51 21.1 °C 17.7 °C 1000.6 hPa WSW 5.5 km/h 18.5 km/h 81 % 0 mm
11:56 21.3 °C 17.5 °C 1000.6 hPa WSW 10.1 km/h 16.7 km/h 79 % 0 mm
12:01 21.3 °C 17.6 °C 1000.6 hPa WSW 6.6 km/h 18.5 km/h 79 % 0 mm
12:06 21.4 °C 17.8 °C 1000.6 hPa WSW 3.9 km/h 7.4 km/h 80 % 0 mm
12:11 21.4 °C 17.4 °C 1000.9 hPa North 2.7 km/h 5.6 km/h 78 % 0 mm
12:16 21.4 °C 17.2 °C 1000.6 hPa WNW 8.2 km/h 22.2 km/h 77 % 0 mm
12:21 21.3 °C 17.1 °C 1000.6 hPa WNW 1.3 km/h 5.6 km/h 77 % 0 mm
12:26 21.3 °C 17.3 °C 1000.6 hPa WSW 11.7 km/h 14.5 km/h 78 % 0 mm
12:31 21.1 °C 17.1 °C 1000.6 hPa WSW 8.5 km/h 16.7 km/h 78 % 0 mm
12:36 21 °C 16.8 °C 1000.6 hPa WSW 8.2 km/h 16.7 km/h 77 % 0 mm
12:41 20.9 °C 16.9 °C 1000.6 hPa WSW 4.2 km/h 9.7 km/h 78 % 0 mm
12:46 20.9 °C 16.9 °C 1000.6 hPa SW 9.7 km/h 13 km/h 78 % 0 mm
12:51 20.8 °C 16.8 °C 1000.6 hPa WSW 7.6 km/h 14.8 km/h 78 % 0 mm
12:56 20.8 °C 17.4 °C 1000.6 hPa SW 4.5 km/h 7.4 km/h 81 % 0 mm
13:01 20.8 °C 17 °C 1000.6 hPa WSW 6.4 km/h 11.3 km/h 79 % 0 mm
13:11 21.2 °C 17.9 °C 1000.6 hPa West 5.1 km/h 11.1 km/h 82 % 0 mm
13:17 21.6 °C 18 °C 1000.6 hPa WSW 3.5 km/h 7.4 km/h 80 % 0 mm
13:22 22 °C 18 °C 1000.6 hPa SW 3.4 km/h 8 km/h 78 % 0 mm
13:27 22.3 °C 18.3 °C 1000.6 hPa SW 5.6 km/h 8 km/h 78 % 0 mm
13:32 22.6 °C 17.9 °C 1000.6 hPa West 2.6 km/h 5.6 km/h 75 % 0 mm
13:37 22.8 °C 18.1 °C 1000.6 hPa NW 3.9 km/h 7.4 km/h 75 % 0 mm
13:42 23.2 °C 18.6 °C 1000.6 hPa WSW 5.1 km/h 8 km/h 75 % 0 mm
13:47 23.6 °C 18 °C 1000.6 hPa WSW 5 km/h 7.4 km/h 71 % 0 mm
13:52 23.8 °C 17.6 °C 1000.6 hPa SW 7.2 km/h 13 km/h 68 % 0 mm
13:57 24 °C 18.2 °C 1000.6 hPa SW 7.4 km/h 11.1 km/h 70 % 0 mm
14:02 24 °C 17.9 °C 1000.6 hPa West 2.3 km/h 3.7 km/h 69 % 0 mm
14:07 24 °C 17.7 °C 1000.6 hPa WNW 0.5 km/h 5.6 km/h 68 % 0 mm
14:12 23.9 °C 17.4 °C 1000.6 hPa WSW 4 km/h 6.4 km/h 67 % 0 mm
14:17 23.8 °C 17.8 °C 1000.6 hPa WNW 1.9 km/h 3.2 km/h 69 % 0 mm
14:22 23.8 °C 18.3 °C 1000.6 hPa West 2.7 km/h 6.4 km/h 71 % 0 mm
14:27 23.9 °C 18.4 °C 1000.6 hPa WNW 0.8 km/h 7.4 km/h 71 % 0 mm
14:32 24.1 °C 18.5 °C 1000.6 hPa NW 3.4 km/h 7.4 km/h 71 % 0 mm
14:37 24.3 °C 18 °C 1000.6 hPa West 6.6 km/h 11.3 km/h 68 % 0 mm
14:42 24.4 °C 18.1 °C 1000.9 hPa NNW 2.9 km/h 5.6 km/h 68 % 0 mm
14:47 24.4 °C 17.9 °C 1000.6 hPa Calm   1.9 km/h 67 % 0 mm
14:52 24.6 °C 18.6 °C 1000.6 hPa WNW 7.1 km/h 11.1 km/h 69 % 0 mm
14:54 24.7 °C 17.9 °C 1000.6 hPa NNW 4.8 km/h 11.1 km/h 66 % 0 mm
14:59 24.8 °C 17 °C 1000.6 hPa ENE 1.1 km/h 9.3 km/h 62 % 0 mm
15:04 24.8 °C 16.8 °C 1000.9 hPa WSW 6 km/h 13 km/h 61 % 0 mm
15:09 25 °C 16.7 °C 1000.9 hPa West 11.3 km/h 18.5 km/h 60 % 0 mm
15:14 25 °C 15.9 °C 1000.9 hPa WNW 9.5 km/h 18.5 km/h 57 % 0 mm
15:19 25 °C 16.4 °C 1000.9 hPa WNW 7.1 km/h 16.7 km/h 59 % 0 mm
15:24 25.1 °C 16.8 °C 1000.9 hPa WNW 4.3 km/h 8 km/h 60 % 0 mm
15:29 25.2 °C 16.3 °C 1000.9 hPa WNW 10.5 km/h 22.2 km/h 58 % 0 mm
15:34 25.2 °C 15.8 °C 1000.9 hPa NW 9.3 km/h 13 km/h 56 % 0 mm
15:39 25.2 °C 16.1 °C 1000.9 hPa West 8.2 km/h 13 km/h 57 % 0 mm
15:44 25.3 °C 15.9 °C 1000.9 hPa WNW 7.4 km/h 18.5 km/h 56 % 0 mm
15:49 25.3 °C 16.4 °C 1000.9 hPa NW 9 km/h 14.8 km/h 58 % 0 mm
15:54 25.3 °C 16.4 °C 1000.9 hPa WNW 3.4 km/h 7.4 km/h 58 % 0 mm
15:57 25.3 °C 16.7 °C 1000.9 hPa West 8.7 km/h 16.7 km/h 59 % 0 mm
16:02 25.4 °C 16 °C 1000.9 hPa West 7.2 km/h 14.8 km/h 56 % 0 mm
16:07 25.4 °C 16 °C 1000.9 hPa West 7.1 km/h 18.5 km/h 56 % 0 mm
16:12 25.4 °C 16.3 °C 1000.9 hPa West 5.3 km/h 11.3 km/h 57 % 0 mm
16:17 25.6 °C 15.8 °C 1000.9 hPa NW 6.8 km/h 9.3 km/h 55 % 0 mm
16:22 25.6 °C 15.9 °C 1001.2 hPa West 7.4 km/h 12.9 km/h 55 % 0 mm
16:24 25.6 °C 15.8 °C 1001.2 hPa NW 8.2 km/h 14.8 km/h 55 % 0 mm
16:29 25.5 °C 15.8 °C 1001.2 hPa WNW 8.4 km/h 13 km/h 55 % 0 mm
16:34 25.4 °C 16.3 °C 1001.2 hPa WNW 3.7 km/h 5.6 km/h 57 % 0 mm
16:39 25.4 °C 15.7 °C 1001.2 hPa WSW 6.9 km/h 14.8 km/h 55 % 0 mm
16:44 25.4 °C 15.4 °C 1001.2 hPa WNW 3.1 km/h 6.4 km/h 54 % 0 mm
16:49 25.4 °C 15.4 °C 1001.6 hPa WNW 9.7 km/h 14.8 km/h 54 % 0 mm
16:54 25.4 °C 15.7 °C 1001.2 hPa NW 3.5 km/h 9.3 km/h 55 % 0 mm
16:59 25.3 °C 15.3 °C 1001.2 hPa WNW 7.2 km/h 18.5 km/h 54 % 0 mm
17:04 25.2 °C 15.2 °C 1001.2 hPa NW 5.6 km/h 18.5 km/h 54 % 0 mm
17:09 25 °C 15.1 °C 1001.2 hPa WSW 4.3 km/h 9.3 km/h 54 % 0 mm
17:14 24.8 °C 15.7 °C 1001.2 hPa NW 3.7 km/h 9.3 km/h 57 % 0 mm
17:19 24.6 °C 15.5 °C 1001.6 hPa WSW 3.9 km/h 14.5 km/h 57 % 0 mm
17:24 24.6 °C 15.2 °C 1001.2 hPa WNW 1.9 km/h 5.6 km/h 56 % 0 mm
17:29 24.4 °C 15.1 °C 1001.6 hPa West 9 km/h 12.9 km/h 56 % 0 mm
17:34 24.4 °C 15.3 °C 1001.6 hPa NW 3.4 km/h 9.7 km/h 57 % 0 mm
17:39 24.3 °C 14.9 °C 1001.6 hPa WNW 4.7 km/h 7.4 km/h 56 % 0 mm
17:44 24.3 °C 15.5 °C 1001.6 hPa WNW 6.3 km/h 8 km/h 58 % 0 mm
17:49 24.2 °C 15.4 °C 1001.6 hPa WNW 5.8 km/h 11.1 km/h 58 % 0 mm
17:54 24 °C 15.2 °C 1001.6 hPa NW 4.5 km/h 11.1 km/h 58 % 0 mm
17:59 23.9 °C 15.1 °C 1001.9 hPa WNW 4.2 km/h 9.3 km/h 58 % 0 mm
18:04 23.8 °C 15.3 °C 1001.9 hPa WNW 4 km/h 8 km/h 59 % 0 mm
18:10 23.6 °C 15.1 °C 1001.9 hPa WNW 4.2 km/h 13 km/h 59 % 0 mm
18:15 23.4 °C 14.7 °C 1001.9 hPa West 8.7 km/h 14.8 km/h 58 % 0 mm
18:20 23.2 °C 14.9 °C 1001.9 hPa WSW 4 km/h 16.7 km/h 60 % 0 mm
18:25 23 °C 14.8 °C 1002.3 hPa West 9.8 km/h 14.8 km/h 60 % 0 mm
18:30 22.8 °C 14.9 °C 1002.3 hPa WNW 1.9 km/h 7.4 km/h 61 % 0 mm
18:35 22.8 °C 14.9 °C 1002.3 hPa WNW 6.3 km/h 9.3 km/h 61 % 0 mm
18:39 22.7 °C 15.3 °C 1002.6 hPa WNW 6.3 km/h 11.3 km/h 63 % 0 mm
18:45 22.7 °C 15 °C 1002.6 hPa WNW 6.3 km/h 14.5 km/h 62 % 0 mm
18:50 22.6 °C 14.9 °C 1002.6 hPa WNW 5.6 km/h 9.3 km/h 62 % 0 mm
18:54 22.6 °C 14.7 °C 1002.6 hPa NW 4 km/h 14.8 km/h 61 % 0 mm
19:00 22.6 °C 14.7 °C 1002.6 hPa WSW 4 km/h 9.3 km/h 61 % 0 mm
19:02 22.6 °C 14.7 °C 1002.6 hPa West 6.8 km/h 14.8 km/h 61 % 0 mm
19:07 22.5 °C 14.3 °C 1002.6 hPa WNW 9 km/h 16.7 km/h 60 % 0 mm
19:12 22.4 °C 14.6 °C 1002.9 hPa NW 4.2 km/h 12.9 km/h 61 % 0 mm
19:17 22.4 °C 14.5 °C 1002.9 hPa WNW 9.7 km/h 14.8 km/h 61 % 0 mm
19:22 22.3 °C 14.7 °C 1003.3 hPa NW 4.7 km/h 14.8 km/h 62 % 0 mm
19:27 22.2 °C 14.3 °C 1003.3 hPa NW 7.6 km/h 16.7 km/h 61 % 0 mm
19:32 22.1 °C 14.5 °C 1003.3 hPa WNW 8.5 km/h 14.8 km/h 62 % 0 mm
19:37 22 °C 14.4 °C 1003.3 hPa WNW 3.2 km/h 11.1 km/h 62 % 0 mm
19:42 21.9 °C 14.3 °C 1003.6 hPa WNW 13.5 km/h 18.5 km/h 62 % 0 mm
19:47 21.7 °C 14.1 °C 1003.6 hPa WNW 7.1 km/h 14.5 km/h 62 % 0 mm
19:52 21.6 °C 14.3 °C 1003.6 hPa West 10.1 km/h 16.7 km/h 63 % 0 mm
19:57 21.4 °C 14.3 °C 1003.6 hPa West 7.1 km/h 14.8 km/h 64 % 0 mm
20:02 21.3 °C 14.2 °C 1003.6 hPa WNW 5 km/h 14.8 km/h 64 % 0 mm
20:07 21.1 °C 14.3 °C 1003.6 hPa WNW 6 km/h 16.1 km/h 65 % 0 mm
20:12 21 °C 14.4 °C 1003.6 hPa WNW 3.2 km/h 14.8 km/h 66 % 0 mm
20:17 20.8 °C 14 °C 1003.9 hPa WNW 9 km/h 14.8 km/h 65 % 0 mm
20:22 20.7 °C 14.1 °C 1003.9 hPa WNW 8.7 km/h 16.7 km/h 66 % 0 mm
20:27 20.6 °C 14 °C 1004.3 hPa WSW 4.7 km/h 11.3 km/h 66 % 0 mm
20:32 20.5 °C 13.9 °C 1004.3 hPa WNW 4.2 km/h 16.7 km/h 66 % 0 mm
20:37 20.4 °C 14.1 °C 1004.3 hPa WSW 6.1 km/h 16.7 km/h 67 % 0 mm
20:42 20.3 °C 13.9 °C 1004.6 hPa NW 9.8 km/h 16.7 km/h 67 % 0 mm
20:47 20.2 °C 14.1 °C 1004.6 hPa WNW 5.6 km/h 13 km/h 68 % 0 mm
20:52 19.9 °C 13.8 °C 1004.6 hPa WNW 5.3 km/h 14.5 km/h 68 % 0 mm
20:57 19.8 °C 14 °C 1005 hPa WNW 2.4 km/h 13 km/h 69 % 0 mm
21:03 19.7 °C 14.1 °C 1005 hPa NNW 3.1 km/h 5.6 km/h 70 % 0 mm
21:08 19.6 °C 14 °C 1005.3 hPa WNW 8 km/h 20.9 km/h 70 % 0 mm
21:13 19.4 °C 13.8 °C 1005.3 hPa NW 4 km/h 13 km/h 70 % 0 mm
21:18 19.3 °C 13.4 °C 1005.3 hPa NNW 5.3 km/h 11.3 km/h 69 % 0 mm
21:23 19.1 °C 13.3 °C 1005.3 hPa NE 5.3 km/h 13 km/h 69 % 0 mm
21:28 19 °C 13.2 °C 1005.6 hPa NNW 8 km/h 16.7 km/h 69 % 0 mm
21:33 18.9 °C 13.1 °C 1005.6 hPa ENE 6.6 km/h 11.1 km/h 69 % 0 mm
21:38 18.8 °C 13.2 °C 1005.6 hPa WNW 5 km/h 14.8 km/h 70 % 0 mm
21:43 18.7 °C 13.3 °C 1006 hPa WNW 0.6 km/h 11.1 km/h 71 % 0 mm
21:48 18.7 °C 13.5 °C 1006 hPa NW 4.2 km/h 6.4 km/h 72 % 0 mm
21:53 18.6 °C 13.4 °C 1006.3 hPa NW 3.4 km/h 11.1 km/h 72 % 0 mm
21:58 18.5 °C 13.6 °C 1006.3 hPa WNW 3.9 km/h 5.6 km/h 73 % 0 mm
22:04 18.4 °C 13.4 °C 1006.3 hPa NW 5.8 km/h 13 km/h 73 % 0 mm
22:09 18.3 °C 13.6 °C 1006.3 hPa West 1.9 km/h 5.6 km/h 74 % 0 mm
22:16 18.3 °C 13.6 °C 1006.3 hPa WNW 3.2 km/h 4.8 km/h 74 % 0 mm
22:21 18 °C 13.7 °C 1006.7 hPa WNW 3.4 km/h 8 km/h 76 % 0 mm
22:26 17.8 °C 13.6 °C 1006.7 hPa WNW 4.3 km/h 5.6 km/h 76 % 0 mm
22:31 17.7 °C 13.4 °C 1006.7 hPa WNW 1.8 km/h 5.6 km/h 76 % 0 mm
22:36 17.6 °C 13.3 °C 1006.7 hPa SW 3.4 km/h 9.3 km/h 76 % 0 mm
22:41 17.5 °C 13.4 °C 1006.7 hPa West 0.8 km/h 3.7 km/h 77 % 0 mm
22:46 17.4 °C 13.4 °C 1006.7 hPa WNW 0.3 km/h 3.7 km/h 77 % 0 mm
22:51 17.3 °C 13.3 °C 1006.7 hPa SW 1 km/h 5.6 km/h 77 % 0 mm
22:56 17.3 °C 13.2 °C 1006.7 hPa WNW 3.1 km/h 9.3 km/h 77 % 0 mm
23:01 17.2 °C 13.2 °C 1007 hPa NW 8 km/h 13 km/h 77 % 0 mm
23:06 17.2 °C 13.2 °C 1007 hPa WNW 5.6 km/h 9.3 km/h 77 % 0 mm
23:11 17.2 °C 13.1 °C 1007 hPa WNW 2.7 km/h 7.4 km/h 77 % 0 mm
23:16 17.2 °C 13.1 °C 1007 hPa WNW 4 km/h 7.4 km/h 77 % 0 mm
23:21 17.2 °C 13.1 °C 1007 hPa NW 4.2 km/h 9.3 km/h 77 % 0 mm
23:26 17.1 °C 13.1 °C 1007 hPa Calm     77 % 0 mm
23:31 17.1 °C 13.2 °C 1007 hPa Calm     78 % 0 mm
23:36 17.1 °C 13.4 °C 1007 hPa Calm     79 % 0 mm
23:41 17 °C 13.5 °C 1007 hPa NW 0.5 km/h 3.7 km/h 80 % 0 mm
23:46 16.9 °C 13.4 °C 1007 hPa Calm     80 % 0 mm
23:51 16.8 °C 13.3 °C 1007 hPa Calm     80 % 0 mm
23:55 16.7 °C 13.3 °C 1007 hPa Calm     80 % 0 mm
Crab Meadow Weather
Compliments of Weather Underground - 3 mb

Script developed by  Jim McMurry - jmcmurry@mwt.net Adapted for the template by  Wim van der Kuil - Leuven-Template.eu

Hurricanes: Hurricanes are classified into five categories, based on their wind speeds and potential to cause damage. * Category One -- Winds 74-95 miles per hour * Category Two -- Winds 96-110 miles per hour * Category Three -- Winds 111-130 miles per hour * Category Four -- Winds 131-155 miles per hour * Category Five -- Winds greater than 155 miles per hour.